Live-Position
3D-Globus wird geladen...
Über OneWeb SL0309
Group: 3 satellites
Beschreibung wird geladen...
Nächste Überflüge
Passes for default location (London). Set your location on the main map for personalized predictions.
Höhenverlauf
Loading altitude history...
No altitude history available
Zweizeiliger Elementsatz
1 49095U 21075W 26123.97010984 .00000003 00000-0 -25656-4 0 9996
2 49095 87.9173 14.6514 0001397 75.3923 284.7363 13.17647992227759
Epoch: 3. Mai 2026 •
Age: 10 hours
Aktueller Status
Höhe 1196.8 km
Geschwindigkeit 7.26 km/s
Subsatellitenpunkt 0.40°N,
167.27°W
Startdatum 21. Aug. 2021
Alter 4.7 years
Typ internet
Startgruppe
Unknown Vehicle •
OneWeb Launch 9 •
34 satellites
OneWeb SL0285
49075
OneWeb SL0286 49076
OneWeb SL0287 49077
OneWeb SL0288 49078
OneWeb SL0289 49079
OneWeb SL0290 49080
OneWeb SL0291 49081
OneWeb SL0293 49082
OneWeb SL0294 49083
OneWeb SL0295 49084
OneWeb SL0296 49085
OneWeb SL0297 49086
OneWeb SL0298 49087
OneWeb SL0299 49088
OneWeb SL0300 49089
OneWeb SL0301 49090
OneWeb SL0302 49091
OneWeb SL0304 49092
OneWeb SL0305 49093
OneWeb SL0308 49094
...and 13 more
Technische Details
Klassifizierung Payload
Masse 148.00 kg
Trockenmasse 140.00 kg
Gesamtmasse 148.00 kg
Länge 1.30 m
Durchmesser 1.00 m
Spannweite 5.00 m
Form Trapezoid+2 pan
Hersteller ONEWUS
Bus-Typ ARROW
Phasenstatus In Orbit
Besitzer/Staat ONEWEBN/UK
Most Searched
Loading...